Weather History for Boone, IA

Change the Weather History Date:

Wednesday, November 21, 2012

  Actual Average Record
Temperature  
Mean Temperature 60 °F -  
Max Temperature 73 °F 43 °F 73 °F (2012)
Min Temperature 46 °F 21 °F -1 °F (1964)
Degree Days  
Heating Degree Days 6    
Growing Degree Days 10 (Base 50)    
Moisture  
Dew Point 39 °F    
Average Humidity 51    
Maximum Humidity 75    
Minimum Humidity 24    
Precipitation  
Precipitation 0.00 in - - ()
Sea Level Pressure  
Sea Level Pressure 30.02 in    
Wind  
Wind Speed 11 mph (SSW)    
Max Wind Speed 18 mph    
Max Gust Speed 29 mph    
Visibility 10 miles    
Events      
Averages and records for this station are not official NWS values.
T = Trace of Precipitation, MM = Missing Value Source: NWS Daily Summary

Daily Weather History Graph

Daily Weather History Graph

Search for Another Location

Airport:

Trip Planner

Search our weather history database for the weather conditions in past years. The results will help you decide how hot, cold, wet, or windy it might be!

Date:

Astronomy

Nov. 21, 2012 Rise Set
Actual Time 7:13 AM CST 4:49 PM CST
Civil Twilight 6:42 AM CST 5:19 PM CST
Nautical Twilight 6:08 AM CST 5:53 PM CST
Astronomical Twilight 5:35 AM CST 6:27 PM CST
Moon 1:11 PM CST (11/21) 12:26 AM CST (11/21)
Length of Visible Light 10h 36m
Length of Day
9h 35m
First Quarter, 62% of the Moon is Illuminated
Nov 21
First Quarter
Nov 28
Full
Dec 6
Last Quarter
Dec 13
New
Dec 19
First Quarter

Hourly Weather History & Observations

Time (CST) Temp. Dew Point Humidity Pressure Visibility Wind Dir Wind Speed Gust Speed Precip Events Conditions
12:15 AM 49.5 °F 37.4 °F 63% 30.14 in 10.0 mi SSW 11.5 mph - N/A   Clear
12:35 AM 51.3 °F 37.9 °F 60% 30.14 in 10.0 mi SSW 8.1 mph - N/A   Clear
12:55 AM 52.2 °F 38.5 °F 60% 30.13 in 10.0 mi SSW 11.5 mph - N/A   Clear
1:15 AM 52.5 °F 38.7 °F 59% 30.13 in 10.0 mi SSW 11.5 mph 17.3 mph N/A   Clear
1:35 AM 51.8 °F 38.8 °F 61% 30.12 in 10.0 mi SSW 10.4 mph - N/A   Clear
1:55 AM 50.9 °F 38.8 °F 63% 30.12 in 10.0 mi SSW 9.2 mph - N/A   Clear
2:15 AM 51.8 °F 39.2 °F 62% 30.13 in 10.0 mi SW 9.2 mph - N/A   Clear
2:35 AM 51.4 °F 39.4 °F 63% 30.13 in 10.0 mi SSW 9.2 mph - N/A   Clear
2:55 AM 51.8 °F 39.2 °F 62% 30.13 in 10.0 mi SSW 9.2 mph 16.1 mph N/A   Clear
3:15 AM 50.9 °F 39.4 °F 65% 30.13 in 10.0 mi SSW 10.4 mph - N/A   Clear
3:35 AM 50.0 °F 39.2 °F 66% 30.13 in 10.0 mi SSW 8.1 mph - N/A   Clear
3:55 AM 49.6 °F 39.4 °F 68% 30.12 in 10.0 mi SSW 9.2 mph - N/A   Clear
4:15 AM 49.5 °F 39.4 °F 68% 30.12 in 10.0 mi SSW 9.2 mph - N/A   Clear
4:35 AM 49.1 °F 39.6 °F 70% 30.12 in 10.0 mi SSW 8.1 mph - N/A   Clear
4:55 AM 48.7 °F 39.6 °F 71% 30.12 in 10.0 mi SSW 8.1 mph - N/A   Clear
5:15 AM 48.2 °F 39.4 °F 72% 30.11 in 10.0 mi South 6.9 mph - N/A   Clear
5:35 AM 47.5 °F 39.4 °F 73% 30.11 in 10.0 mi South 8.1 mph - N/A   Clear
5:55 AM 47.7 °F 39.2 °F 72% 30.11 in 10.0 mi South 8.1 mph - N/A   Clear
6:15 AM 47.7 °F 39.2 °F 72% 30.11 in 10.0 mi South 8.1 mph - N/A   Clear
6:35 AM 47.3 °F 39.2 °F 73% 30.11 in 10.0 mi South 8.1 mph - N/A   Clear
6:55 AM 46.8 °F 39.2 °F 75% 30.10 in 10.0 mi South 8.1 mph - N/A   Clear
7:15 AM 47.1 °F 39.2 °F 74% 30.10 in 10.0 mi South 8.1 mph - N/A   Clear
7:35 AM 48.0 °F 39.2 °F 72% 30.10 in 10.0 mi SSW 10.4 mph - N/A   Clear
7:55 AM 49.3 °F 39.6 °F 69% 30.10 in 10.0 mi SSW 11.5 mph - N/A   Clear
8:15 AM 50.9 °F 39.6 °F 65% 30.10 in 10.0 mi SSW 11.5 mph - N/A   Clear
8:35 AM 52.7 °F 39.4 °F 61% 30.10 in 10.0 mi SSW 13.8 mph 17.3 mph N/A   Clear
8:55 AM 54.5 °F 39.2 °F 56% 30.10 in 10.0 mi SSW 15.0 mph 20.7 mph N/A   Clear
9:15 AM 56.3 °F 39.4 °F 53% 30.10 in 10.0 mi SSW 11.5 mph 19.6 mph N/A   Clear
9:35 AM 57.9 °F 40.1 °F 52% 30.09 in 10.0 mi SSW 12.7 mph 21.9 mph N/A   Clear
9:55 AM 59.9 °F 40.3 °F 48% 30.10 in 10.0 mi SW 13.8 mph 23.0 mph N/A   Clear
10:15 AM 61.9 °F 40.3 °F 45% 30.09 in 10.0 mi SSW 15.0 mph 20.7 mph N/A   Clear
10:35 AM 64.4 °F 40.3 °F 41% 30.09 in 10.0 mi SW 13.8 mph 19.6 mph N/A   Clear
10:55 AM 65.5 °F 40.1 °F 39% 30.08 in 10.0 mi SW 15.0 mph - N/A   Clear
11:15 AM 66.7 °F 41.2 °F 39% 30.07 in 10.0 mi SW 15.0 mph 19.6 mph N/A   Clear
11:35 AM 68.0 °F 42.3 °F 39% 30.06 in 10.0 mi SSW 17.3 mph 25.3 mph N/A   Clear
11:55 AM 69.8 °F 42.8 °F 38% 30.05 in 10.0 mi SW 18.4 mph 23.0 mph N/A   Clear
12:15 PM 70.9 °F 43.3 °F 37% 30.03 in 10.0 mi SSW 12.7 mph 24.2 mph N/A   Clear
12:35 PM 72.1 °F 43.0 °F 35% 30.02 in 10.0 mi SSW 17.3 mph 26.5 mph N/A   Clear
12:55 PM 72.5 °F 42.3 °F 34% 30.02 in 10.0 mi SW 18.4 mph 26.5 mph N/A   Clear
1:15 PM 73.4 °F 41.9 °F 32% 30.01 in 10.0 mi SSW 18.4 mph 23.0 mph N/A   Clear
1:35 PM 73.4 °F 39.4 °F 29% 30.00 in 10.0 mi SW 18.4 mph 28.8 mph N/A   Clear
2:15 PM 73.6 °F 39.2 °F 29% 29.98 in 10.0 mi SSW 17.3 mph 25.3 mph N/A   Clear
2:35 PM 73.6 °F 37.9 °F 27% 29.97 in 10.0 mi SSW 17.3 mph 25.3 mph N/A   Clear
2:55 PM 73.8 °F 36.5 °F 26% 29.96 in 10.0 mi SSW 15.0 mph 28.8 mph N/A   Clear
3:15 PM 73.6 °F 36.0 °F 25% 29.96 in 10.0 mi SSW 13.8 mph 21.9 mph N/A   Clear
3:35 PM 73.2 °F 34.3 °F 24% 29.96 in 10.0 mi SSW 15.0 mph 21.9 mph N/A   Clear
3:55 PM 72.5 °F 35.1 °F 25% 29.96 in 10.0 mi SSW 13.8 mph 23.0 mph N/A   Clear
4:15 PM 71.4 °F 35.8 °F 27% 29.95 in 10.0 mi SSW 16.1 mph 23.0 mph N/A   Clear
4:35 PM 69.8 °F 37.6 °F 31% 29.95 in 10.0 mi South 11.5 mph 17.3 mph N/A   Clear
4:55 PM 68.4 °F 38.3 °F 33% 29.95 in 10.0 mi South 10.4 mph 17.3 mph N/A   Clear
5:15 PM 66.9 °F 39.0 °F 36% 29.94 in 10.0 mi South 9.2 mph - N/A   Clear
5:35 PM 61.0 °F 41.4 °F 48% 29.94 in 10.0 mi South 9.2 mph - N/A   Clear
5:55 PM 60.8 °F 42.3 °F 50% 29.93 in 10.0 mi SSE 10.4 mph - N/A   Clear
6:15 PM 58.3 °F 42.4 °F 56% 29.93 in 10.0 mi South 9.2 mph - N/A   Clear
6:35 PM 57.9 °F 42.3 °F 56% 29.93 in 10.0 mi SSE 10.4 mph - N/A   Clear
6:55 PM 57.7 °F 41.9 °F 56% 29.93 in 10.0 mi SSE 9.2 mph - N/A   Clear
7:15 PM 59.0 °F 40.6 °F 51% 29.93 in 10.0 mi South 10.4 mph - N/A   Clear
7:35 PM 58.8 °F 39.9 °F 50% 29.93 in 10.0 mi South 9.2 mph - N/A   Clear
7:55 PM 58.3 °F 39.4 °F 49% 29.93 in 10.0 mi South 10.4 mph - N/A   Clear
8:15 PM 57.7 °F 39.2 °F 50% 29.93 in 10.0 mi South 10.4 mph - N/A   Clear
8:35 PM 60.3 °F 38.1 °F 44% 29.92 in 10.0 mi South 12.7 mph 20.7 mph N/A   Clear
8:55 PM 60.1 °F 38.3 °F 44% 29.92 in 10.0 mi South 13.8 mph 19.6 mph N/A   Clear
9:15 PM 59.7 °F 37.9 °F 44% 29.91 in 10.0 mi South 15.0 mph 19.6 mph N/A   Clear
9:35 PM 60.1 °F 37.9 °F 44% 29.91 in 10.0 mi South 16.1 mph 23.0 mph N/A   Clear
9:55 PM 60.8 °F 37.6 °F 42% 29.90 in 10.0 mi South 16.1 mph 23.0 mph N/A   Clear
10:15 PM 61.2 °F 37.6 °F 42% 29.90 in 10.0 mi South 18.4 mph 27.6 mph N/A   Clear
10:35 PM 60.1 °F 38.1 °F 44% 29.89 in 10.0 mi South 13.8 mph 23.0 mph N/A   Clear
10:55 PM 59.9 °F 38.3 °F 45% 29.88 in 10.0 mi South 13.8 mph 23.0 mph N/A   Clear
11:15 PM 59.9 °F 38.5 °F 45% 29.87 in 10.0 mi South 15.0 mph 23.0 mph N/A   Clear
11:35 PM 59.5 °F 38.5 °F 46% 29.87 in 10.0 mi South 16.1 mph 23.0 mph N/A   Clear
11:55 PM 59.0 °F 38.8 °F 47% 29.86 in 10.0 mi South 15.0 mph 21.9 mph N/A   Clear